Погода в Пятилипах

Россия / Новгородская область     58°52′24″N   31°02′25″E
темп.,
°C
ветер,
м/с
пор.,
м/с
влажн.,
%
обл.,
%
осадки,
мм/ч
давл.,
гПа
погр.,
м
24 мая, вт
вт2400:00+9зсз276499 0.0 1010184
03:00+5ссз398756 0.0 1011208
06:00+5с277477 0.0 1012206
09:00+11с473554 0.0 1012786
12:00+15с59305 0.0 10121493
15:00+16с58205 0.0 10121691
18:00+14ссв48275 0.0 10131196
21:00+7ссв25501 0.0 101485
25 мая, ср
ср2500:00+4св22560 0.0 101511
03:00+3ссв11690 0.0 101610
06:00+5св11660 0.0 101639
09:00+12св11450 0.0 1016494
12:00+17зсз13352 0.0 10151384
15:00+18сз2434100 0.0 10131873
18:00+19св2338100 0.0 10121301
21:00+11в266248 0.0 1012122
26 мая, чт
чт2600:00+8вюв255996 0.0 101176
03:00+9в255999 0.0 1009116
06:00+9вюв3765100 0.0 1007191
09:00+12вюв3563100 0.1 1005437
12:00+9вюв2692100 0.7 1004247
15:00+10вюв2597100 2.7 1002215
18:00+10ююз0198100 4.4 100032
21:00+10з1198100 8.6 99927
27 мая, пт
пт2700:00+8зсз259997 0.1 997125
03:00+8з2898100 0.1 997227
06:00+9з3996100 0.0 996467
09:00+11зюз489085 0.1 996654
12:00+11зюз488683 0.8 9961026
15:00+10зюз41193100 1.9 996942
18:00+11зюз49895 1.0 996891
21:00+8юз11924 1.6 99510
28 мая, сб
сб2800:00+6ююв239561 0.1 99450
03:00+5ююз279898 0.2 993198
06:00+7зюз379799 0.1 993416
09:00+6юз3796100 0.5 994447
12:00+7юз349399 0.2 995351
15:00+9юз3483100 0.2 995641
18:00+11зюз2480100 0.5 995646
21:00+9з259262 1.8 996103